Location: Beneden
(51.0500°N, 0.5833°E)
Time: 05:26:24
(UTC+00:00)

Daily predictions for brighter satellites

Satellite Brightness Start Highest point End
(mag) Time Altitude Azimuth Time Altitude Azimuth Time Altitude Azimuth
SL-4 R/B 2.8 00:02:06 10° W 00:05:47 33° SSW 00:06:37 30° S
Cosmos 1825 1.9 00:04:51 35° S 00:06:06 69° E 00:09:31 10° NNE
Cosmos 2154 Rocket 4.2 00:07:15 22° SSE 00:11:21 62° E 00:17:33 10° NNE
Cosmos 2297 Rocket 2.3 00:09:01 19° SW 00:13:14 80° WNW 00:18:55 10° NNE
Okean 1 Rocket 3.0 00:09:20 10° N 00:13:42 88° W 00:16:03 27° S
NOSS 3-2 (A) 4.3 00:12:22 20° SSE 00:14:47 29° ESE 00:19:51 10° ENE
Cosmos 2219 4.0 00:14:01 22° SSE 00:17:05 38° ESE 00:22:15 10° NE
Aureole 1 Rocket 4.2 00:17:04 19° SE 00:18:38 26° E 00:22:16 10° NE
PSLV R/B 3.8 00:14:46 10° N 00:18:58 60° WNW 00:21:22 23° SW
ATLAS CENTAUR R/B 4.3 00:21:25 10° NW 00:23:09 13° NNW 00:24:54 10° NNE
Cosmos 1354 Rocket 4.3 00:25:11 19° SW 00:28:58 67° WNW 00:34:17 10° NNE
Resurs 1-4 Rocket 4.4 00:30:23 10° NE 00:33:10 14° E 00:35:56 10° ESE
H-2A R/B 2.2 00:29:16 10° N 00:33:31 65° WNW 00:35:54 24° SSW
Cosmos 2084 Rocket 3.3 00:31:32 21° SW 00:34:19 88° NW 00:38:27 10° NE
Cosmos 1975 Rocket 3.8 00:37:42 20° SSE 00:40:18 43° E 00:44:29 10° NNE
Cosmos 292 Rocket 4.3 00:40:12 23° S 00:42:52 48° ESE 00:47:30 10° NE
Cosmos 2263 Rocket 2.8 00:42:06 21° S 00:45:28 45° ESE 00:50:45 10° NE
BlueWalker 3 2.2 00:43:42 10° W 00:47:26 67° N 00:51:10 10° ENE
Orbus 7S? 3.1 00:45:42 10° NW 00:48:21 63° NNE 00:51:41 10° ESE
BREEZE-M DEB (TANK) 3.8 00:45:39 10° WSW 00:48:43 73° S 00:57:18 10° E
Cosmos 1455 Rocket 3.0 00:45:43 10° N 00:50:11 86° W 00:52:57 23° S
Cosmos 332 Rocket 4.2 00:48:13 19° SW 00:51:39 58° WNW 00:56:31 10° NNE
Cosmos 2074 Rocket 4.3 00:49:56 19° SSW 00:54:21 57° WNW 01:00:29 10° N
Cosmos 1680 Rocket 4.0 00:51:14 10° NNW 00:56:24 60° ENE 01:01:32 10° SE
Cosmos 2341 Rocket 4.3 00:56:40 17° SSE 01:01:26 60° E 01:07:33 10° NNE
Cosmos 1818 3.6 00:56:41 10° NW 01:02:13 90° SW 01:07:42 10° SE
Helios 1A Rocket 2.7 01:02:09 21° SSE 01:04:34 90° SW 01:08:24 10° NNW
Cosmos 1025 Rocket 3.3 01:02:30 23° SSW 01:05:04 59° WNW 01:09:21 10° N
USA 234 4.1 01:00:14 10° ENE 01:06:35 54° N 01:12:55 10° WNW
Cosmos 1461 3.8 01:06:44 21° SSE 01:08:34 31° ESE 01:12:03 10° ENE
COSMOS 2455 4.2 01:03:55 10° WSW 01:09:26 36° NW 01:15:00 10° NNE
Cosmos 990 Rocket 4.2 01:08:07 19° SW 01:11:48 64° WNW 01:16:56 10° NNE
TIMED 4.4 01:10:13 23° SSW 01:12:52 87° ESE 01:17:13 10° NNE
CENTAUR R/B 2.6 01:11:48 16° SW 01:16:42 86° NW 01:24:05 10° NE
SL-19 R/B 3.5 01:13:50 10° NNE 01:16:54 81° ESE 01:18:11 29° S
In-Cosmos 22 Rocket 4.3 01:14:28 19° S 01:18:43 88° E 01:24:36 10° NNE
IDEFIX/ARIANE 42P 3.4 01:16:18 10° NNE 01:21:17 42° E 01:25:41 13° SSE
SL-16 R/B 2.8 01:17:33 10° NW 01:22:50 40° WSW 01:26:32 18° SSW
Cosmos 1869 3.0 01:23:36 10° NNW 01:27:19 81° W 01:29:53 19° S
Cosmos 1603 4.3 01:22:08 10° NNW 01:27:51 60° NE 01:33:30 10° SE
Cosmos 2237 Rocket 4.2 01:26:25 10° WNW 01:28:29 12° W 01:30:33 10° WSW
CZ-2C R/B 4.5 01:25:01 10° NNE 01:29:53 32° E 01:34:30 10° SSE
GEOS 3 Rocket 3.9 01:27:50 10° NE 01:32:59 65° NW 01:37:52 11° WSW
CZ-4C R/B 3.7 01:30:56 10° W 01:35:37 36° NNW 01:41:28 10° NE
Cosmos 2082 3.7 01:31:20 18° SSW 01:35:40 88° WNW 01:41:20 10° NNE
Cosmos 2218 Rocket 4.0 01:31:20 15° S 01:36:32 82° E 01:42:45 10° NNE
CZ-2D R/B 3.1 01:31:45 10° NNE 01:36:50 41° E 01:41:46 10° SSE
Cosmos 1943 3.1 01:31:19 10° NNW 01:36:58 84° WSW 01:42:34 10° SSE
Cosmos 2227 Rocket 3.2 01:32:06 10° WSW 01:37:26 40° NW 01:42:47 10° NNE
CZ-2C R/B 2.9 01:33:00 10° SSE 01:38:15 70° ENE 01:43:40 10° N
Cosmos 1437 Rocket 4.2 01:35:33 10° SSE 01:38:55 30° E 01:42:15 10° NNE
Cosmos 2366 rocket 4.0 01:37:03 16° S 01:42:19 88° WNW 01:48:35 10° N
Cosmos 372 Rocket 4.0 01:40:51 17° SSW 01:44:55 81° WNW 01:50:10 10° NNE
Cosmos 494 Rocket 4.5 01:40:51 10° NNW 01:46:03 63° ENE 01:51:16 10° SE
MOZ.5/SAFIR/RUBIN 5/SL-8 4.0 01:43:48 15° S 01:47:29 55° W 01:52:03 10° NNW
Meteor 1-11 4.5 01:49:40 16° SSW 01:54:24 63° WNW 02:00:11 10° N
NPP 3.8 01:50:53 10° NNE 01:56:18 77° ESE 02:01:13 13° S
Cosmos 2297 Rocket 4.2 01:53:53 10° W 01:58:12 22° NW 02:02:32 10° NNE
ADEOS II 3.0 01:53:16 10° NNE 01:58:16 43° E 02:03:14 10° S
Cosmos 2228 3.1 01:55:52 10° NNW 02:00:08 59° W 02:03:54 13° S
Cosmos 2219 4.0 01:55:55 11° WSW 02:01:10 45° NW 02:06:34 10° NNE
Aureole 1 Rocket 4.1 01:58:23 12° WSW 02:01:35 35° NW 02:05:55 10° NNE
Cosmos 1544 Rocket 4.1 01:57:39 10° NNW 02:01:53 44° W 02:05:22 14° SSW
Cosmos 1937 Rocket 3.7 01:59:45 14° SW 02:04:13 67° WNW 02:09:27 10° NNE
NOSS 3-2 (A) 3.6 01:59:43 11° WSW 02:04:58 67° NW 02:11:29 10° NE
Cosmos 1606 3.6 02:01:58 10° NNW 02:05:06 29° W 02:07:22 15° SW
H-2A R/B 3.3 02:04:01 10° NNE 02:08:01 90° NNW 02:11:32 13° SSW
ALOS 3.8 02:04:43 10° NNE 02:08:49 30° E 02:12:53 10° SSE
Cosmos 1898 Rocket 4.1 02:04:35 12° SW 02:09:08 47° WNW 02:14:09 10° NNE
SL-16 R/B 2.9 02:04:11 10° SSE 02:10:22 68° ENE 02:16:34 10° NNW
Cosmos 2227 4.4 02:05:48 13° SSW 02:10:56 73° ESE 02:16:42 10° NNE
NOSS 3-2 (C) 3.3 02:06:42 14° SW 02:11:25 78° SE 02:17:49 10° NE
SL-8 Rocket 4.4 02:07:58 13° SW 02:13:18 50° WNW 02:19:20 10° N
Resurs 1-4 Rocket 2.2 02:08:27 10° NNE 02:13:46 84° ESE 02:19:00 10° SSW
Cosmos 1844 4.5 02:14:31 10° S 02:20:00 47° ESE 02:25:32 10° NE
Cosmos 1812 3.8 02:19:38 10° N 02:23:04 41° ENE 02:26:28 10° SSE
BlueWalker 3 2.2 02:22:06 10° WNW 02:25:50 69° N 02:29:34 10° E
Cosmos 2263 Rocket 3.1 02:24:15 10° WSW 02:29:29 40° NW 02:34:43 10° NNE
Cosmos 1727 Rocket 4.2 02:23:38 10° NNW 02:29:50 59° W 02:36:02 10° S
Cosmos 921 Rocket 3.0 02:30:04 10° NNW 02:34:15 58° WSW 02:38:20 10° S
COSMOS 2441 4.4 02:30:22 10° NNE 02:35:12 83° WNW 02:40:01 10° SSW
Cosmos 1606 Rocket 3.6 02:33:00 10° NNW 02:37:26 66° W 02:41:48 10° S
Cosmos 724 4.2 02:38:12 10° NW 02:44:01 76° SW 02:49:50 10° SSE
Cosmos 1461 3.7 02:42:56 10° WSW 02:46:40 39° NW 02:50:20 10° NNE
Cosmos 1536 Rocket 4.4 02:43:34 10° SW 02:47:43 38° WNW 02:51:52 10° N
Cosmos 1844 Rocket 2.8 02:42:55 10° SSW 02:48:30 82° ESE 02:54:06 10° NNE
USA 234 3.5 02:42:44 10° ESE 02:49:16 78° NNE 02:55:50 10° WNW
Cosmos 1726 Rocket 3.7 02:48:11 10° NNW 02:52:36 62° W 02:56:56 10° S
Cosmos 2058 3.7 02:48:49 10° S 02:52:44 50° E 02:56:43 10° NNE
Cosmos 1238 Rocket 3.1 02:51:23 10° N 02:54:53 55° ENE 02:57:57 10° SSE
Meteor 1-28 Rocket 3.5 02:54:31 10° S 02:57:54 42° W 03:01:19 10° NNW
IDEFIX/ARIANE 42P 3.6 02:56:01 10° N 03:00:44 35° WNW 03:05:25 10° SW
